Location: Saint-Usage
(47.1052°N, 5.2587°E)
Time: 12:55:58
(UTC+02:00)

Nauka - Pass Details

Date: 27 September 2021
Orbit: 417 x 423 km, 51.6° (Epoch: 19 October)

Event Time Altitude Azimuth Distance (km) Brightness Sun altitude
Rises 21:46:02 0° 294° (WNW) 2,366 ? -24.0°
Reaches altitude 10° 21:48:09 10° 298° (WNW) 1,502 ? -24.3°
Enters shadow 21:50:18 35° 313° (NW) 698 ? -24.6°
